Location: Unspecified
(0.0000°N, 0.0000°E)
Time: 14:11:52
(UTC+00:00)

Altair 2 - Pass Details

Date: 15 November 2025
Orbit: 1042 x 1088 km, 88.8° (Epoch: 09 December)

Event Time Altitude Azimuth Distance (km) Brightness Sun altitude
Rises 02:42:32 0° 178° (S) 3,805 11.4 -42.6°
Reaches altitude 10° 02:45:04 10° 179° (S) 2,851 10.6 -42.0°
Enters shadow 02:45:42 13° 179° (S) 2,621 10.4 -41.9°
